TimeMST,TemperatureF,Dew PointF,Humidity,Sea Level PressureIn,VisibilityMPH,Wind Direction,Wind SpeedMPH,Gust SpeedMPH,PrecipitationIn,Events,Conditions,WindDirDegrees,DateUTC
12:53 AM,39.9,30.9,70,29.75,10.0,NNE,3.5,-,N/A,,Clear,20,2012-12-01 07:53:00
1:53 AM,39.0,32.0,76,29.77,10.0,Calm,Calm,-,N/A,,Clear,0,2012-12-01 08:53:00
2:53 AM,41.0,32.0,70,29.78,10.0,Calm,Calm,-,N/A,,Clear,0,2012-12-01 09:53:00
3:53 AM,36.0,32.0,86,29.80,10.0,Calm,Calm,-,N/A,,Clear,0,2012-12-01 10:53:00
4:53 AM,33.1,30.0,89,29.82,10.0,West,3.5,-,N/A,,Clear,260,2012-12-01 11:53:00
5:53 AM,30.9,28.0,89,29.83,10.0,Calm,Calm,-,N/A,,Clear,0,2012-12-01 12:53:00
6:53 AM,34.0,30.0,85,29.86,10.0,SW,10.4,-,N/A,,Clear,230,2012-12-01 13:53:00
7:53 AM,35.1,30.9,85,29.86,10.0,WSW,9.2,-,N/A,,Clear,240,2012-12-01 14:53:00
8:53 AM,46.9,36.0,66,29.84,10.0,West,8.1,-,N/A,,Clear,260,2012-12-01 15:53:00
9:53 AM,55.0,37.0,51,29.84,10.0,West,11.5,-,N/A,,Clear,270,2012-12-01 16:53:00
10:53 AM,55.9,37.9,51,29.85,10.0,WNW,11.5,-,N/A,,Clear,290,2012-12-01 17:53:00
11:53 AM,57.9,37.0,46,29.83,10.0,WNW,12.7,-,N/A,,Clear,290,2012-12-01 18:53:00
12:53 PM,55.9,39.0,53,29.85,10.0,WNW,11.5,-,N/A,,Clear,300,2012-12-01 19:53:00
1:53 PM,55.0,39.9,57,29.86,10.0,West,4.6,-,N/A,,Clear,270,2012-12-01 20:53:00
2:53 PM,53.1,39.0,59,29.87,10.0,SW,3.5,-,N/A,,Clear,220,2012-12-01 21:53:00
3:53 PM,51.1,37.9,61,29.89,10.0,Calm,Calm,-,N/A,,Clear,0,2012-12-01 22:53:00
4:53 PM,43.0,35.1,74,29.92,10.0,WSW,9.2,-,N/A,,Clear,240,2012-12-01 23:53:00
5:53 PM,39.0,32.0,76,29.94,10.0,WSW,5.8,-,N/A,,Clear,250,2012-12-02 00:53:00
6:53 PM,36.0,30.0,79,29.96,10.0,East,4.6,-,N/A,,Clear,100,2012-12-02 01:53:00
7:53 PM,37.0,30.0,76,29.96,10.0,WSW,6.9,-,N/A,,Clear,250,2012-12-02 02:53:00
8:53 PM,41.0,30.9,67,29.91,10.0,WSW,8.1,-,N/A,,Clear,250,2012-12-02 03:53:00
9:53 PM,37.0,30.0,76,29.92,10.0,SW,6.9,-,N/A,,Clear,230,2012-12-02 04:53:00
10:53 PM,39.9,30.0,68,29.91,10.0,Calm,Calm,-,N/A,,Clear,0,2012-12-02 05:53:00
11:53 PM,37.9,30.0,73,29.91,10.0,WSW,5.8,-,N/A,,Clear,250,2012-12-02 06:53:00